Change the Weather History Date:

Monday, November 25, 2013

  Actual Average Record
Temperature  
Mean Temperature 34 °F 27 °F  
Max Temperature 42 °F 38 °F 60 °F (1976)
Min Temperature 25 °F 17 °F -10 °F (1993)
Degree Days  
Heating Degree Days 31 38  
Month to date heating degree days 835 808  
Since 1 July heating degree days 1963 1987  
Cooling Degree Days 0 0  
Month to date cooling degree days 0 0  
Year to date cooling degree days 187 177  
Moisture  
Dew Point 17 °F    
Average Humidity 54    
Maximum Humidity 68    
Minimum Humidity 40    
Precipitation  
Precipitation 0.00 in 0.01 in 0.30 in (2012)
Month to date precipitation 0.61 0.52  
Year to date precipitation 21.42 18.48  
Sea Level Pressure  
Sea Level Pressure 30.20 in    
Wind  
Wind Speed 4 mph (NNW)    
Max Wind Speed 14 mph    
Max Gust Speed 20 mph    
Visibility 10 miles    
Events      
T = Trace of Precipitation, MM = Missing Value Source: NWS Daily Summary

Daily Weather History Graph

Daily Weather History Graph

Search for Another Location

Airport or City:

Trip Planner

Search our weather history database for the weather conditions in past years. The results will help you decide how hot, cold, wet, or windy it might be!

Date:

Astronomy

Nov. 25, 2013 Rise Set
Actual Time 7:01 AM MST 4:21 PM MST
Civil Twilight 6:29 AM MST 4:52 PM MST
Nautical Twilight 5:54 AM MST 5:28 PM MST
Astronomical Twilight 5:20 AM MST 6:02 PM MST
Moon 11:56 PM MST (11/25) 12:12 PM MST (11/25)
Length of Visible Light 10h 23m
Length of Day
9h 19m
Waning Gibbous, 50% of the Moon is Illuminated
Nov 25
Waning Gibbous
Nov 25
Last Quarter
Dec 2
New
Dec 9
First Quarter
Dec 17
Full

Hourly Weather History & Observations

Time (MST) Temp. Windchill Dew Point Humidity Pressure Visibility Wind Dir Wind Speed Gust Speed Precip Events Conditions
12:53 AM 32.0 °F 24.8 °F 17.1 °F 54% 30.01 in 10.0 mi NE 8.1 mph - N/A   Overcast
1:53 AM 30.9 °F 26.2 °F 18.0 °F 59% 30.04 in 10.0 mi WNW 4.6 mph - N/A   Overcast
2:53 AM 30.9 °F 27.5 °F 17.1 °F 57% 30.06 in 10.0 mi NW 3.5 mph - N/A   Overcast
3:53 AM 28.0 °F - 17.1 °F 63% 30.09 in 10.0 mi Calm Calm - N/A   Clear
4:53 AM 27.0 °F 21.6 °F 17.1 °F 66% 30.14 in 10.0 mi NW 4.6 mph - N/A   Clear
5:53 AM 26.1 °F - 17.1 °F 69% 30.18 in 10.0 mi Calm Calm - N/A   Mostly Cloudy
6:53 AM 30.0 °F 25.2 °F 19.0 °F 64% 30.16 in 10.0 mi NW 4.6 mph - N/A   Clear
7:53 AM 32.0 °F - 19.9 °F 61% 30.18 in 10.0 mi Calm Calm - N/A   Clear
8:53 AM 36.0 °F 31.1 °F 21.0 °F 55% 30.19 in 10.0 mi Variable 5.8 mph - N/A   Clear
9:53 AM 37.9 °F 32.7 °F 21.0 °F 51% 30.20 in 10.0 mi NNW 6.9 mph - N/A   Clear
10:53 AM 39.0 °F - 21.0 °F 49% 30.20 in 10.0 mi Calm Calm - N/A   Partly Cloudy
11:53 AM 37.9 °F 34.4 °F 19.0 °F 47% 30.20 in 10.0 mi WNW 4.6 mph - N/A   Partly Cloudy
12:53 PM 39.9 °F 35.1 °F 18.0 °F 41% 30.19 in 10.0 mi Variable 6.9 mph - N/A   Partly Cloudy
1:53 PM 39.0 °F 32.8 °F 18.0 °F 43% 30.19 in 10.0 mi NNW 9.2 mph 17.3 mph N/A   Partly Cloudy
2:53 PM 35.1 °F 29.3 °F 16.0 °F 46% 30.23 in 10.0 mi North 6.9 mph - N/A   Clear
3:53 PM 34.0 °F 31.0 °F 16.0 °F 48% 30.26 in 10.0 mi NNW 3.5 mph - N/A   Clear
4:53 PM 30.9 °F - 16.0 °F 54% 30.28 in 10.0 mi Calm Calm - N/A   Clear
5:53 PM 27.0 °F - 15.1 °F 61% 30.30 in 10.0 mi Calm Calm - N/A   Clear
6:53 PM 26.1 °F - 14.0 °F 60% 30.31 in 10.0 mi Calm Calm - N/A   Mostly Cloudy
7:53 PM 28.9 °F 22.8 °F 14.0 °F 54% 30.28 in 10.0 mi NNE 5.8 mph - N/A   Overcast
8:53 PM 30.0 °F 26.5 °F 14.0 °F 51% 30.27 in 10.0 mi Variable 3.5 mph - N/A   Overcast
9:53 PM 30.9 °F 22.2 °F 14.0 °F 50% 30.25 in 10.0 mi NW 10.4 mph 19.6 mph N/A   Overcast
10:53 PM 30.9 °F 23.5 °F 12.9 °F 47% 30.26 in 10.0 mi NNW 8.1 mph 17.3 mph N/A   Overcast
11:53 PM 30.0 °F 22.4 °F 12.9 °F 49% 30.27 in 10.0 mi NNW 8.1 mph - N/A   Overcast